Miscellaneous Local Product
Issued by NWS North Platte, NE

Home | Current Version | Previous Version | Text Only | Print | Product List | Glossary On
Versions: 1 2 3 4 5 6 7 8 9 10 11 12 13 14 15 16 17 18 19 20 21 22 23 24 25 26 27 28 29 30 31 32 33 34 35 36 37 38 39 40 41 42 43 44 45 46 47 48 49 50
000
AXUS43 KLBF 230410
MISLBF


WESTERN AND NORTH CENTRAL NEBRASKA HOURLY WEATHER ROUNDUP
NATIONAL WEATHER SERVICE NORTH PLATTE NE
1100 PM CDT FRI SEP 22 2017

NOTE: "FAIR" INDICATES FEW OR NO CLOUDS BELOW 12,000 FEET WITH NO
SIGNIFICANT WEATHER AND/OR OBSTRUCTIONS TO VISIBILITY.

NOTE: STATIONS NOT REPORTING VARIABLES SUCH AS SKY/WEATHER OR
PRESSURE ARE PROVIDED BY RAWS AND APRS NETWORKS AND ARE NOT UNDER
NATIONAL WEATHER SERVICE QUALITY CONTROL.

...OBSERVATIONS IN AND NEAR THE EASTERN PANHANDLE OF NEBRASKA...

CITY           SKY/WX    TMP DP  RH WIND       PRES   REMARKS
PINE RIDGE     PTCLDY    52  40  63 N12       29.99R
GORDON         FAIR      51  40  66 NE13      29.96R
CHADRON        PTCLDY    50  37  61 NE12      29.98R
ALLIANCE       CLOUDY    52  40  63 NE18      29.95R
SIDNEY         PTCLDY    57  46  66 NE18      29.90R
CRESCENT LAKE    N/A     55  44  67 N12G23      N/A
$$

...OBSERVATIONS IN NORTHERN NEBRASKA AND FAR SOUTHERN SOUTH DAKOTA...

CITY           SKY/WX    TMP DP  RH WIND       PRES   REMARKS
WINNER         CLOUDY    57  50  77 NW13      29.93R
VALENTINE      CLOUDY    55  44  66 N10       29.93R
THEDFORD       CLOUDY    55  50  82 N5        29.91R
AINSWORTH      LGT RAIN  55  50  83 N13       29.91R
O`NEILL        CLOUDY    62  58  84 NW6       29.87R
ORD            MOCLDY    71  60  68 NW6       29.80R
BROKEN BOW     CLOUDY    66  55  67 N14       29.83R
VALENTINE NWR    N/A     55  44  67 N8G16       N/A
HALSEY           N/A     59  52  76 N7G14       N/A
BUTTE            N/A     58  54  87 N8          N/A
CHAMBERS         N/A     64  56  75 CALM        N/A
EWING            N/A     66  59  79 NE3         N/A
$$

...OBSERVATIONS IN SOUTHWEST NEBRASKA AND FAR NORTHEAST COLORADO...

CITY           SKY/WX    TMP DP  RH WIND       PRES   REMARKS
WRAY           FAIR      79  54  41 S18G25    29.77R
HOLYOKE        FAIR      63  50  63 NE13G21   29.82S
IMPERIAL       PTCLDY    81  51  35 SE9G20    29.79R
OGALLALA       TSTM      62  50  64 NE10G22   29.84R
NORTH PLATTE   PTCLDY    65  53  65 NE24G31   29.82R
MCCOOK         PTCLDY    83  60  45 S21G31    29.78R
LEXINGTON      PTCLDY    82  59  44 S20       29.79S
STAPLETON        N/A     58  52  81 NE6         N/A
GOTHENBURG       N/A     83  53  35 S12         N/A
CALLAWAY         N/A     68  58  69 N5          N/A
$$

...OBSERVATIONS IN CENTRAL LINCOLN COUNTY AREA...

CITY           SKY/WX    TMP DP  RH WIND       PRES   REMARKS
N.P. AIRPORT   PTCLDY    65  53  65 NE24G31   29.82R
N.P. DOWNTOWN    N/A     62  55  78 E10         N/A
N.P. SOUTHEAST   N/A     62  55  78 NE6G15      N/A
N.P. HILLCREST   N/A     60  55  84 NE23        N/A
$$

...SOME OBSERVATIONS FROM AROUND THE REGION...

CITY           SKY/WX    TMP DP  RH WIND       PRES   REMARKS
DENVER         MOCLDY    59  38  45 NW14      29.92S
LIMON            N/A    N/A N/A N/A MISG      29.90R
ASPEN          CLOUDY    46  39  76 S6        29.97S
LARAMIE        CLOUDY    45  39  79 SE7       29.99F
CASPER         PTCLDY    42  40  92 N12       29.97S
CHEYENNE       CLOUDY    48  36  63 N14G21    29.97F
SCOTTSBLUFF    CLEAR     54  42  64 N10       29.94R
GRAND ISLAND   PTCLDY    80  65  59 S16G26    29.84R
OMAHA          CLEAR     81  68  64 S17       29.88R
SIOUX FALLS    MOCLDY    73  67  81 NW5       29.80R
PIERRE         CLOUDY    51  45  79 NW14      29.93F
RAPID CITY     CLOUDY    48  36  61 N18       30.02R
BISMARCK       CLOUDY    50  45  83 N14G24    29.96R
KANSAS CITY    CLEAR     73  68  84 S7        29.96R
HILL CITY      CLEAR     82  62  50 S16G26    29.83S
WICHITA        CLEAR     77  69  76 SE14G22   29.91F
DODGE CITY     CLOUDY    78  64  61 S24G32    29.89R
OKLAHOMA CITY  PTCLDY    77  64  64 SE13      29.93S
DALLAS         CLEAR     83  66  56 SE10      29.91R
AMARILLO       PTCLDY    74  60  61 SE9       29.93S
$$




USA.gov is the U.S. government's official web portal to all federal, state and local government web resources and services.